Перетычиха

Россия / Приморский край     47°11′04″N   138°37′59″E
темп.,
°C
ветер,
м/с
пор.,
м/с
влажн.,
%
обл.,
%
осадки,
мм/ч
давл.,
гПа
погр.,
м
11 мая, вт
вт1101:00+4з1195100 0.0 101331
04:00+4вюв1196100 0.1 101428
07:00+3вюв2399100 0.5 1016384
10:00+3вюв2298100 0.7 1018463
13:00+3вюв1297100 0.2 1019407
16:00+3ююв1195100 0.3 1019319
19:00+3юз119595 0.0 1020288
22:00+3зюз129790 0.0 102175
12 мая, ср
ср1201:00+3юз119798 0.0 102137
04:00+3ююз1196100 0.0 102130
07:00+4ююз119495 0.1 102280
10:00+8ю337844 0.1 1020614
13:00+8ююв4472100 0.0 1019749
16:00+7ю4578100 0.0 1018568
19:00+5ю3690100 0.0 1018377
22:00+4ю2496100 0.0 1017304
13 мая, чт
чт1301:00+4ю1198100 0.3 1016116
04:00+4ююз1299100 2.4 1014102
07:00+5сз129757 1.2 1013116
10:00+10ю2280100 1.2 1012475
13:00+13ююв436699 0.0 1011680
16:00+11ююв347017 0.3 1010308
19:00+7юв118530 0.1 1010143
22:00+7св11891 0.3 101112
14 мая, пт
пт1401:00+5сз119414 0.0 101210
04:00+6зсз22895 0.0 101124
07:00+9зсз23810 0.0 101279
10:00+17зсз14456 0.0 1012819
13:00+15вюв435115 0.0 1012328
16:00+12в226317 0.1 1012280
19:00+9в2279100 0.0 1013118
22:00+6всв1190100 0.0 101350
15 мая, сб
сб1501:00+6всв1290100 0.0 101346
04:00+5в1293100 0.0 101150
07:00+5юв1195100 0.7 1009151
10:00+5ююв2899100 6.8 1007335
13:00+6ююз1298100 1.6 1003198
16:00+8ю2294100 1.6 1001145
19:00+9зсз2797100 1.3 1001208
22:00+9з347136 0.0 100250